Location: Antioch Hospital (historical)
(38.0138°N, 121.8055°W)
Time: 10:16:58
(UTC+00:00)

Daily predictions for brighter satellites

Satellite Brightness Start Highest point End
(mag) Time Altitude Azimuth Time Altitude Azimuth Time Altitude Azimuth
H-2A R/B 3.5 12:06:22 13° SW 12:08:28 20° W 12:11:10 10° NW
Cosmos 1733 Rocket 3.4 12:04:22 10° N 12:08:41 69° E 12:12:57 10° SSE
Cosmos 1603 4.2 12:08:21 10° NW 12:13:36 38° WSW 12:18:49 10° S
Cosmos 923 Rocket 4.1 12:08:32 10° SSW 12:13:51 87° WNW 12:19:10 10° NNE
Cosmos 1812 1.1 12:13:46 10° NNW 12:15:25 37° W 12:17:02 10° SSW
Cosmos 2341 Rocket 4.2 12:13:21 10° N 12:19:45 86° E 12:26:02 10° S
CZ-2C R/B 2.6 12:16:40 10° NNE 12:21:12 67° ESE 12:25:42 10° S
BREEZE-M DEB (TANK) 4.4 12:20:24 10° NNW 12:22:13 24° NE 12:24:29 10° E
Cosmos 1943 Rocket 3.2 12:20:25 10° S 12:25:48 48° ESE 12:31:13 10° NE
Atlas Centaur 2 3.4 12:18:52 10° WSW 12:26:08 44° S 12:33:48 10° ESE
USA 281 4.2 12:23:41 10° SSW 12:28:44 23° WSW 12:33:48 10° NW
SL-8 Rocket 4.0 12:25:09 10° N 12:31:22 74° W 12:37:30 10° S
Cosmos 2218 Rocket 4.1 12:25:56 10° N 12:32:21 88° W 12:38:45 10° S
